FW9480 Weather Reports


time (UTC)temp
C
wind
direction
speed
KPH
gust
KPH
rain 1hr
cm
rain 24hr
cm
rain mn
cm
humidity
%
barometer
mb
20260504081554 7 175 6.4 11.3 0.00 0.00 0.00 66 1008.5
20260504044555 6 144 0.0 3.2 0.00 0.00 0.00 77 1008.7
20260504043044 6 0 0.0 0.0 0.00 0.00 0.00 75 1008.8
20260504041539 6 0 0.0 0.0 0.00 0.00 0.00 74 1008.9
20260504040050 6 0 0.0 0.0 0.00 0.00 0.00 75 1008.8
20260504034552 6 0 0.0 0.0 0.00 0.00 0.00 76 1008.7
20260504033050 6 0 0.0 1.6 0.00 0.00 0.00 75 1008.7
20260504031542 6 0 0.0 1.6 0.00 0.00 0.00 75 1008.7
20260504030041 6 0 0.0 0.0 0.00 0.00 0.00 73 1008.6
20260504024544 6 0 0.0 0.0 0.00 0.00 0.00 71 1008.6
20260504023037 7 0 0.0 0.0 0.00 0.00 0.00 72 1008.5
20260504021544 7 0 0.0 0.0 0.00 0.00 0.00 71 1008.6
20260504020043 7 0 0.0 0.0 0.00 0.00 0.00 66 1008.7
20260504014545 8 0 0.0 0.0 0.00 0.00 0.00 65 1008.7
20260504013043 8 0 0.0 0.0 0.00 0.00 0.00 63 1008.6
20260504011538 10 0 0.0 0.0 0.00 0.00 0.00 59 1008.5
20260504010048 10 0 0.0 0.0 0.00 0.00 0.00 54 1008.2
20260504004537 11 0 0.0 0.0 0.00 0.00 0.00 46 1008.1
20260504003037 11 0 0.0 0.0 0.00 0.00 0.00 43 1007.9
20260504001601 12 0 0.0 0.0 0.00 0.00 0.00 40 1007.7
20260504000044 12 0 0.0 0.0 0.00 0.00 0.00 40 1007.7
20260503234539 12 0 0.0 8.0 0.00 0.00 0.00 39 1007.4
20260503233037 13 166 0.0 6.4 0.00 0.00 0.00 38 1007.2
20260503231545 13 28 1.6 8.0 0.00 0.00 0.00 34 1007.1
20260503230043 13 180 3.2 9.7 0.00 0.00 0.00 34 1007.0
20260503224543 13 0 0.0 4.8 0.00 0.00 0.00 34 1006.8
20260503223043 13 65 1.6 6.4 0.00 0.00 0.00 28 1006.7
20260503221543 14 58 1.6 6.4 0.00 0.00 0.00 29 1006.4
20260503220049 14 244 3.2 11.3 0.00 0.00 0.00 26 1006.7
20260503214537 14 227 1.6 11.3 0.00 0.00 0.00 33 1006.6
20260503213047 14 56 3.2 8.0 0.00 0.00 0.00 35 1006.6
20260503211559 14 238 4.8 14.5 0.00 0.00 0.00 31 1006.5
20260503210041 14 207 1.6 8.0 0.00 0.00 0.00 32 1006.5
20260503204540 13 216 3.2 11.3 0.00 0.00 0.00 29 1006.5
20260503203038 13 64 3.2 11.3 0.00 0.00 0.00 31 1006.7
20260503201539 13 248 1.6 9.7 0.00 0.00 0.00 37 1006.7
20260503200044 13 220 6.4 20.9 0.00 0.00 0.00 32 1006.8
20260503194547 13 251 4.8 14.5 0.00 0.00 0.00 37 1007.0
20260503193049 12 246 3.2 11.3 0.00 0.00 0.00 37 1007.2
20260503191540 12 67 3.2 9.7 0.00 0.00 0.00 39 1007.4
20260503190039 11 229 3.2 11.3 0.00 0.00 0.00 36 1007.8
20260503184537 11 48 3.2 11.3 0.00 0.00 0.00 42 1008.1
20260503183041 11 240 1.6 12.9 0.00 0.00 0.00 39 1008.1
20260503181616 10 237 6.4 16.1 0.00 0.00 0.00 40 1008.3
20260503180044 10 0 4.8 17.7 0.00 0.00 0.00 42 1008.2
20260503174540 10 76 1.6 14.5 0.00 0.00 0.00 38 1008.2
20260503173051 10 193 3.2 14.5 0.00 0.00 0.00 39 1008.2
20260503171538 10 94 3.2 17.7 0.00 0.00 0.00 38 1008.3